www.pogodaiklimat.ru

Погода и климат >> Архив погоды >> Иран >> Gach Saran


ПОГОДА в Gach Saran

  • Прогноз погоды в Gach Saran
  • Монитор погоды в Gach Saran
  • Климат города

АРХИВ ПОГОДЫ в Gach Saran

Время (UTC), дата Ветер
(напр.,м/с)
 
Видим.   Явления Облачность Т
(С)
Тd
(С)
f
(%)
Тe
(С)
Тes
(С)
Комфортность P
(гПа)
Po
(гПа)
Тmin
(С)
Tmax
(С)
R
(мм)
R24
(мм)
S
(см)
18 12.07 СЗ 2 10 км ясно +37.4 -2.4 8 +33 +33 жарко 990.8 916.0
21 12.07 штиль 0 10 км ясно +32.9 -2.7 10 +29 +29 жарко 990.6 915.6
00 13.07 штиль 0 10 км ясно +28.7 +0.4 16 +26 +26 жарко 990.4 915.1
03 13.07 штиль 0 10 км ясно +30.2 +2.5 17 +28 +30 жарко 991.4 915.8 +26.1
06 13.07 штиль 0 10 км ясно +41.1 -6.0 5 +37 +56 опасность
солнечного
удара
991.1 916.1
09 13.07 штиль 0 10 км ясно +45.2 -6.1 4 +41 +70 опасность
перегрева
990.3 915.4
12 13.07 З 2 10 км ясно +45.2 -6.6 4 +40 +51 опасность
солнечного
удара
989.2 914.0
15 13.07 З 6 10 км ясно +40.9 -6.1 5 +37 +37 очень
жарко
989.6 913.9 +45.6
18 13.07 штиль 0 10 км ясно +36.3 -3.2 8 +32 +32 жарко 990.4 915.5
21 13.07 штиль 0 10 км ясно +32.4 -3.1 10 +29 +29 жарко 990.4 915.4
00 14.07 штиль 0 10 км ясно +28.7 -1.4 14 +26 +26 жарко 990.7 915.3
03 14.07 штиль 0 10 км ясно +28.9 +2.2 18 +27 +29 жарко 992.1 916.2 +26.6
06 14.07 штиль 0 10 км ясно +40.0 -2.3 7 +36 +55 опасность
солнечного
удара
991.5 916.4
09 14.07 СЗ 4 10 км ясно +42.9 -4.7 5 +39 +53 опасность
солнечного
удара
991.2 915.9
12 14.07 СЗ 8 10 км ясно +42.7 -11.4 3 +38 +40 очень
жарко
990.6 914.9
15 14.07 СЗ 7 10 км ясно +40.1 -9.5 4 +36 +36 очень
жарко
990.9 914.9 +44.3
18 14.07 СЗ 3 10 км ясно +36.4 -4.9 7 +32 +32 жарко 991.4 916.3
21 14.07 штиль 0 10 км ясно +34.1 -4.8 8 +30 +30 жарко 991.0 915.9
00 15.07 штиль 0 10 км ясно +28.0 -2.0 14 +25 +25 комфорт 992.0 916.2
03 15.07 штиль 0 10 км ясно +27.5 +0.3 17 +25 +27 комфорт 993.7 917.4 +25.1
06 15.07 штиль 0 10 км ясно +36.9 -4.5 7 +33 +52 опасность
солнечного
удара
993.3 917.7
09 15.07 СЗ 6 10 км ясно +41.9 -8.3 4 +37 +46 очень
жарко
991.9 916.6
12 15.07 СЗ 7 10 км ясно +41.9 -5.4 5 +38 +41 очень
жарко
991.5 915.6
15 15.07 СЗ 5 10 км ясно +39.3 -4.8 6 +35 +35 очень
жарко
992.1 915.8 +43.3
18 15.07 СЗ 4 10 км ясно +35.7 -2.0 9 +32 +32 жарко 992.6 916.9
21 15.07 СЗ 3 10 км ясно +33.9 -2.0 10 +30 +30 жарко 991.4 916.2
00 16.07 штиль 0 10 км ясно +29.3 +0.9 16 +27 +27 жарко 992.1 916.3
03 16.07 штиль 0 10 км ясно +27.2 +2.3 20 +26 +28 жарко 993.1 916.8 +26.5
06 16.07 штиль 0 10 км ясно +38.4 -1.6 8 +34 +54 опасность
солнечного
удара
992.3 916.9
09 16.07 СЗ 4 10 км ясно +40.6 -3.9 6 +36 +51 опасность
солнечного
удара
991.0 915.7
12 16.07 З 4 10 км ясно +41.5 -5.7 5 +37 +44 очень
жарко
990.2 914.5
15 16.07 З 4 10 км ясно +39.5 -4.7 6 +35 +35 очень
жарко
990.7 914.5 +42.2
18 16.07 З 4 10 км ясно +35.6 -0.7 10 +32 +32 жарко 991.1 915.7
21 16.07 штиль 0 10 км ясно +32.5 +1.6 14 +29 +29 жарко 990.8 915.4
00 17.07 штиль 0 10 км ясно +29.9 +1.4 16 +27 +27 жарко 990.3 914.7
03 17.07 штиль 0 10 км ясно +28.2 +3.8 21 +27 +29 жарко 992.2 916.0 +26.0
06 17.07 штиль 0 10 км ясно +37.5 +0.8 10 +34 +53 опасность
солнечного
удара
990.9 915.5
09 17.07 З 5 10 км 4/0
[Ac trans]
+40.0 +1.2 9 +36 +45 очень
жарко
990.3 914.8
12 17.07 З 6 10 км ясно +40.3 +1.4 9 +37 +41 очень
жарко
989.6 913.9
15 17.07 З 6 10 км ясно +38.0 +1.1 10 +34 +35 очень
жарко
990.4 914.2 +41.8
18 17.07 З 4 10 км ясно +34.6 +3.2 14 +32 +32 жарко 991.3 915.7
21 17.07 З 3 10 км ясно +31.6 +3.6 17 +29 +29 жарко 991.0 915.4
00 18.07 штиль 0 10 км ясно +28.6 +3.5 20 +27 +27 жарко 991.1 915.2
03 18.07 штиль 0 10 км 3/0
[Ac trans]
+28.1 +6.2 25 +27 +29 жарко 992.1 915.9 +26.4
06 18.07 штиль 0 10 км 3/0
[Ac trans]
+36.3 +3.5 13 +33 +49 жарко 992.0 916.3
09 18.07 З 4 10 км ясно +39.6 +2.3 10 +36 +51 опасность
солнечного
удара
991.1 915.5
12 18.07 З 6 10 км ясно +40.3 +1.4 9 +37 +41 очень
жарко
991.2 915.3
15 18.07 З 5 10 км ясно +37.2 +3.1 12 +34 +34 очень
жарко
992.5 916.0 +41.2
18 18.07 З 2 10 км ясно +33.2 +8.0 21 +32 +32 жарко 993.8 917.9
21 18.07 штиль 0 10 км ясно +29.8 +8.3 26 +29 +29 жарко 993.9 918.0
00 19.07 штиль 0 10 км ясно +26.7 +7.7 30 +27 +27 жарко 994.0 917.8
03 19.07 штиль 0 10 км ясно +28.1 +8.9 30 +28 +30 жарко 995.0 918.5 +25.9
06 19.07 штиль 0 10 км ясно +36.4 +6.6 16 +34 +53 опасность
солнечного
удара
994.5 918.5
09 19.07 З 4 10 км ясно +40.2 +2.8 10 +37 +51 опасность
солнечного
удара
993.3 917.4
12 19.07 З 5 10 км ясно +41.0 +7.2 13 +39 +44 очень
жарко
992.4 916.4

 

Местоположение метеостанции Gach Saran (Иран): широта 30.43 долгота 50.77 высота над уровнем моря 699 м.

В архиве по умолчанию представлена погода в Gach Saran за последнюю неделю. Архивные данные за месяц целиком и за предыдущие месяцы, начиная с января 2011 года, Вы можете получить, выбрав интересующий диапазон дат из раскрывающегося списка и нажав кнопку "Ввод!".


*Определитесь, кто Вы:
робот инопланетянин человек

Внимание! Время в таблицах - всемирное. Для получения местного времени необходимо прибавить поправку, которая в Gach Saran равна 3.5 ч.

Смотрите также архив погоды в соседних городах и на ближайших метеорологических станциях:

Погода в Yasuj (Иран) (82 км)
Погода в Omidieh (Иран) (112 км)
Погода в Khark (Иран) (137 км)
Погода в Bushehr Airport (Иран) (161 км)
Погода в Bushehr (Иран) (165 км)
Погода в Shiraz (Иран) (197 км)
Погода в Abadeh (Иран) (200 км)
Погода в Shahre-Kord (Иран) (206 км)
Погода в Masjed-Soleyman (Иран) (224 км)
Погода в Fao (Ирак) (224 км)

Пояснения к столбцам:

Ветер - указаны скорость ветра в м/с - средняя за 10 мин, порывы в срок и между сроками (в фигурных скобках) и направление, откуда дует ветер: С - северный, СВ - северо-восточный, В - восточный, ЮВ - юго-восточный, Ю - южный, ЮЗ - юго-западный, З - западный, СЗ - северо-западный.
Видимость - горизонтальная дальность видимости в метрах или километрах. При видимости от 1 до 10 км при отсутствии осадков обычно наблюдается дымка, при ухудшении видимости до 1 км и менее - туман. В сухую погоду видимость может ухудшаться дымом, пылью или мглою.
Явления - указаны атмосферные явления, наблюдавшиеся в срок или в последний час перед сроком; фигурными скобками обозначены явления, наблюдавшиеся между сроками (за 1-3 часа до срока); квадратными скобками обозначены град или гололедные отложения с указанием их диаметра в мм.
Облачность - указаны через наклонную черту общая и нижняя облачность в баллах и высота нижней границы облаков в метрах; квадратными скобками обозначены формы облаков: Ci - перистые, Cs - перисто-слоистые, Cc - перисто-кучевые, Ac - высококучевые, As - высокослоистые, Sc - слоисто-кучевые, Ns - слоисто-дождевые, Cu - кучевые, Cb - кучево-дождевые. Подробнее классификацию облаков см. в Атласе облаков (PDF).
T - Температура воздуха - температура, измеренная на высоте 2 м над землей.
Td - Температура точки росы - температура, при понижении до которой содержащийся в воздухе водяной пар достигнет насыщения.
f - Относительная влажность воздуха - влажноcть воздуха, измеренная на высоте 2 м над землей.
Te - Эффективная температура - температура, которую ощущает одетый по сезону человек в тени. Характеристика душности погоды. При расчете учитывается влияние влажности воздуха и скорости ветра на теплоощущения человека.
Tes - Эффективная температура на солнце - температура, которую ощущает человек, с поправкой на солнечный нагрев. Характеристика знойности погоды. Зависит от высоты солнца над горизонтом, облачности и скорости ветра. Ночью, в пасмурную погоду, а также при ветре 12 м/с и более поправка равна нулю.
P - Атмосферное давление - приведенное к уровню моря атмосферное давление.
Po - Атмосферное давление - измеренное на уровне метеостанции атмосферное давление.
Tmin - Минимальная температура - минимум температуры воздуха на высоте 2 м над землей.
Tmax - Максимальная температура - максимум температуры воздуха на высоте 2 м над землей.
R - Количество осадков - Количество выпавших осадков за период времени, мм. При наведении курсора мыши на число - период времени, за который выпало указанное количество осадков.
R24 - Количество осадков - Количество выпавших осадков за 24 часа, мм.
S - Снежный покров - Высота снежного покрова, см. При наведении курсора мыши на число - состояние снежного покрова и степень покрытия местности в баллах.